Weather History for Rolla, MO

Change the Weather History Date:

Tuesday, January 21, 2014

  Actual Average Record
Temperature  
Mean Temperature 22 °F 31 °F  
Max Temperature 35 °F 41 °F 68 °F (1964)
Min Temperature 9 °F 21 °F -9 °F (1970)
Degree Days  
Heating Degree Days 43 34  
Month to date heating degree days 790 714  
Since 1 July heating degree days 2877 2631  
Cooling Degree Days 0 0  
Month to date cooling degree days 0 0  
Year to date cooling degree days 0 0  
Moisture  
Dew Point 6 °F    
Average Humidity 60    
Maximum Humidity 80    
Minimum Humidity 39    
Precipitation  
Precipitation T in 0.07 in 0.69 in (2010)
Month to date precipitation 0.85 1.56  
Year to date precipitation 0.85 1.56  
Sea Level Pressure  
Sea Level Pressure 30.24 in    
Wind  
Wind Speed 12 mph (NNW)    
Max Wind Speed 30 mph    
Max Gust Speed 41 mph    
Visibility 8 miles    
Events Snow    
T = Trace of Precipitation, MM = Missing Value Source: NWS Daily Summary

Daily Weather History Graph

Daily Weather History Graph

Search for Another Location

Airport:

Trip Planner

Search our weather history database for the weather conditions in past years. The results will help you decide how hot, cold, wet, or windy it might be!

Date:

Astronomy

Jan. 21, 2014 Rise Set
Actual Time 7:19 AM CST 5:17 PM CST
Civil Twilight 6:51 AM CST 5:46 PM CST
Nautical Twilight 6:18 AM CST 6:18 PM CST
Astronomical Twilight 5:47 AM CST 6:49 PM CST
Moon 10:45 PM CST (1/21) 9:54 AM CST (1/21)
Length of Visible Light 10h 55m
Length of Day
9h 58m
Waning Gibbous, 74% of the Moon is Illuminated
Jan 21
Waning Gibbous
Jan 23
Last Quarter
Jan 30
New
Feb 6
First Quarter
Feb 14
Full

Hourly Weather History & Observations

Time (CST) Temp. Windchill Dew Point Humidity Pressure Visibility Wind Dir Wind Speed Gust Speed Precip Events Conditions
12:53 AM 30.9 °F 17.2 °F 23.0 °F 72% 30.02 in 10.0 mi WNW 25.3 mph 34.5 mph N/A   Overcast
1:53 AM 26.1 °F 12.7 °F 19.0 °F 75% 30.08 in 8.0 mi NNW 18.4 mph 29.9 mph 0.00 in Snow Light Snow
2:49 AM 21.2 °F 3.9 °F 15.8 °F 80% 30.12 in 2.5 mi NW 26.5 mph 38.0 mph 0.00 in Snow Light Snow
2:53 AM 21.0 °F 4.6 °F 16.0 °F 81% 30.15 in 2.0 mi NNW 23.0 mph 38.0 mph 0.00 in Snow Light Snow
3:05 AM 21.0 °F 5.4 °F 16.0 °F 81% 30.13 in 1.5 mi NW 20.7 mph 33.4 mph 0.00 in Snow Light Snow
3:21 AM 19.9 °F 2.5 °F 16.0 °F 85% 30.14 in 1.8 mi NW 25.3 mph 32.2 mph 0.00 in Snow Light Snow
3:27 AM 19.0 °F 1.6 °F 14.0 °F 81% 30.15 in 2.5 mi NW 24.2 mph 32.2 mph 0.00 in Snow Light Snow
3:34 AM 19.0 °F 3.2 °F 12.9 °F 77% 30.15 in 5.0 mi NNW 19.6 mph 31.1 mph 0.00 in Snow Light Snow
3:53 AM 18.0 °F 0.9 °F 12.9 °F 81% 30.19 in 3.0 mi NNW 21.9 mph 35.7 mph 0.00 in Snow Light Snow
4:53 AM 16.0 °F -0.4 °F 9.0 °F 74% 30.24 in 9.0 mi NNW 18.4 mph 27.6 mph 0.00 in Snow Light Snow
5:53 AM 14.0 °F -4.3 °F 7.0 °F 74% 30.29 in 7.0 mi NNW 21.9 mph 28.8 mph 0.00 in Snow Light Snow
6:53 AM 12.9 °F -2.8 °F 5.0 °F 71% 30.31 in 10.0 mi NNW 15.0 mph 25.3 mph 0.00 in   Overcast
7:53 AM 10.9 °F -5.9 °F 3.9 °F 73% 30.35 in 10.0 mi NNW 16.1 mph 23.0 mph N/A   Overcast
8:53 AM 10.0 °F -6.5 °F 1.9 °F 70% 30.37 in 10.0 mi North 15.0 mph 24.2 mph N/A   Mostly Cloudy
9:41 AM 10.9 °F -6.5 °F 1.9 °F 67% 30.34 in 10.0 mi NNW 17.3 mph 23.0 mph N/A   Scattered Clouds
9:53 AM 12.0 °F -5.1 °F 1.9 °F 64% 30.39 in 10.0 mi North 17.3 mph - N/A   Partly Cloudy
10:53 AM 12.9 °F -2.2 °F 1.9 °F 62% 30.38 in 10.0 mi North 13.8 mph - N/A   Clear
11:53 AM 15.1 °F 1.1 °F 1.9 °F 56% 30.37 in 10.0 mi North 12.7 mph 19.6 mph N/A   Clear
12:53 PM 17.1 °F 5.8 °F -0.9 °F 45% 30.34 in 10.0 mi North 9.2 mph - N/A   Clear
1:53 PM 19.0 °F 7.5 °F -0.9 °F 42% 30.30 in 10.0 mi NNW 10.4 mph 18.4 mph N/A   Clear
2:53 PM 19.0 °F 10.0 °F -2.0 °F 40% 30.29 in 10.0 mi North 6.9 mph - N/A   Partly Cloudy
3:53 PM 19.0 °F 10.0 °F -2.0 °F 40% 30.29 in 10.0 mi North 6.9 mph - N/A   Clear
4:53 PM 18.0 °F 11.1 °F -2.0 °F 41% 30.28 in 10.0 mi NNW 4.6 mph - N/A   Clear
5:53 PM 16.0 °F 10.4 °F 1.9 °F 54% 30.27 in 10.0 mi NNE 3.5 mph - N/A   Scattered Clouds
6:53 PM 17.1 °F - 1.0 °F 50% 30.27 in 10.0 mi Calm Calm - N/A   Overcast
7:53 PM 16.0 °F 8.8 °F 1.0 °F 52% 30.24 in 10.0 mi SE 4.6 mph - N/A   Mostly Cloudy
8:53 PM 17.1 °F 8.7 °F -0.9 °F 45% 30.22 in 10.0 mi SE 5.8 mph - N/A   Overcast
9:53 PM 17.1 °F 11.7 °F -0.0 °F 47% 30.23 in 10.0 mi SE 3.5 mph - N/A   Overcast
10:53 PM 17.1 °F 11.7 °F 1.0 °F 50% 30.22 in 10.0 mi SE 3.5 mph - N/A   Overcast
11:53 PM 17.1 °F 11.7 °F 1.9 °F 52% 30.21 in 10.0 mi SE 3.5 mph - N/A   Overcast